Location: *
(51.1248°S, 108.4023°W)
Time: 03:37:45
(UTC+00:00)

Cosmos 2251 Rocket - Pass Details

Date: 15 June 2021
Orbit: 764 x 792 km, 74.0° (Epoch: 31 July)

Event Time Altitude Azimuth Distance (km) Brightness Sun altitude
Exits shadow 13:43:41 - 200° (SSW) 2,748 6.0 -13.6°
Reaches altitude 10° 13:44:38 10° 198° (SSW) 2,392 5.7 -13.4°
Maximum altitude 13:49:58 52° 121° (ESE) 983 4.3 -12.6°
Drops below altitude 10° 13:55:11 10° 44° (NE) 2,349 7.2 -11.9°
Sets 13:57:37 0° 39° (NE) 3,266 7.9 -11.5°
